LFLBLFLC

Guest
Details From LFLB - Aix-Les-Bains
To LFLC - Clermont-Ferrand_Auvergne
Flight Number -
Tags generated
Created
Modified
Stats Distance 114 nm / 211 km
Max Altitude 12,300 ft / 3,749 m
Waypoints 3
Social Downloads 0
Likes 0
Share VATSIM

Download

Looking for another format? Having issues loading an existing format? Contact us
Advertisement - Login to hide

Notes

Basic altitude profile: - Ascent Rate: 200ft/min - Ascent Speed: 120kts - Cruise Altitude: 20000ft - Cruise Speed: 140kts - Descent Rate: 200ft/min - Descent Speed: 200kts Options: - Use NATs: no - Use PACOTS: no - Use low airways: yes - Use high airways: no

Route

LFLB MEBAK LFLC

ID Type Via Altitude Latitude Longitude Leg Dist Tot Dist Heading (true) Name
O LFLB APT - 0 ft / 0 m 45.63623˚ 5.88090˚ - 0 nm - Aix-Les-Bains
MEBAK FIX - 12,300 ft / 3,749 m 45.70806˚ 4.64889˚ 51 nm 51 nm 275° / 274° -
O LFLC APT - 0 ft / 0 m 45.78671˚ 3.16997˚ 62 nm 114 nm 275° / 274° Clermont-Ferrand_Auvergne

Altitude Profile

Advertisement - Login to hide

LFLB

Details ICAO LFLB (CMF)
Name Aix-Les-Bains
Region France
Timezone Europe/Paris (UTC+2.0)
Stats Elevation 779 ft / 237 m (AMSL)
Location 45.636234° 5.880898°
Runways 2
Magnetic Variation 1.741° E

METAR

LFLB 202130Z AUTO 20007KT CAVOK 15/13 Q1015

Decode

TAF

TAF TAF LFLB 201906Z 2019/2112 CNL

Decode

Departure Runways

ID Width Length Bearing (true) Bearing (mag) Surface Threshold Offset Overrun Length
18 148 ft / 45 m 5,452 ft / 1,662 m 176.72° 174.98° Asphalt 26 ft / 8 m 774 ft / 236 m
18L 197 ft / 60 m 2,309 ft / 704 m 176.70° 174.96° Grass 0 ft / 0 m 0 ft / 0 m
36 148 ft / 45 m 5,452 ft / 1,662 m 356.72° 354.98° Asphalt 23 ft / 7 m 456 ft / 139 m
36R 197 ft / 60 m 2,309 ft / 704 m 356.70° 354.96° Grass 315 ft / 96 m 0 ft / 0 m

LFLC

Details ICAO LFLC (CFE)
Name Clermont-Ferrand_Auvergne
Region France
Timezone Europe/Paris (UTC+2.0)
Stats Elevation 1,089 ft / 332 m (AMSL)
Location 45.786712° 3.169967°
Runways 1
Magnetic Variation 1.033° E

METAR

LFLC 202130Z AUTO 21004KT CAVOK 13/09 Q1014 NOSIG

Decode

TAF

TAF LFLC 202000Z 2021/2121 36005KT CAVOK BECMG 2021/2023 VRB03KT BECMG 2103/2106 18005KT PROB40 TEMPO 2116/2121 VRB10KT SHRA BKN050TCU

Decode

Destination Runways

ID Width Length Bearing (true) Bearing (mag) Surface Threshold Offset Overrun Length
08 148 ft / 45 m 9,878 ft / 3,011 m 81.95° 80.92° Asphalt 0 ft / 0 m 0 ft / 0 m
26 148 ft / 45 m 9,878 ft / 3,011 m 261.98° 260.95° Asphalt 476 ft / 145 m 0 ft / 0 m

Approach Navaids

Runway Type Ident Frequency Range Bearing (true) Bearing (mag) Slope Elevation
26 Localiser CF 111.10 MHz 27 nm / 50 km 261.98° 260.95° - 1,089 ft / 332 m (AMSL)
26 Glidescope CF 111.10 MHz 27 nm / 50 km 261.98° 260.95° 3.00° 1,089 ft / 332 m (AMSL)
26 DME CF 111.10 MHz 27 nm / 50 km - - - 1,089 ft / 332 m (AMSL)

Popular Alternatives